Torna al catalogo

STARLINK-1402

AttivoComunicazioniVLEO
NORAD 45685·PAYLOAD·🇺🇸 United States

Lanciato Jun 4, 2020 da Cape Canaveral Space Force Station

Loading…

Prossimi Passaggi (prossime 24 ore)

TLE

AggiornatoSource: CelesTrak SupGP

Epoca: Sep 15, 2026, 02:43 UTC

1 45685C 20035AE  26258.11368056  .00068770  00000+0  47252-3 0  2589
2 45685  53.0360 180.4512 0005140  83.4773  25.9066 15.73939198    14

Traccia STARLINK-1402 in tempo reale con AllMySat

Download on the App Store